EW4883 Weather Reports


Display with metric or nautical units.
time (UTC)temp
F
wind
direction
speed
MPH
gust
MPH
rain 1hr
in
rain 24hr
in
rain mn
in
humidity
%
barometer
mb
20260507115553 58 250 0.0 1.0 0.00 0.00 0.00 42 1014.9
20260507115052 59 0 0.0 0.0 0.00 0.00 0.00 41 1014.9
20260507114557 59 0 0.0 3.0 0.00 0.00 0.00 40 1015.0
20260507114052 59 0 0.0 4.0 0.00 0.00 0.00 40 1014.9
20260507113552 59 0 0.0 4.0 0.00 0.00 0.00 40 1015.0
20260507113123 59 250 0.0 4.0 0.00 0.00 0.00 40 1015.0
20260507112552 60 0 0.0 3.0 0.00 0.00 0.00 39 1014.9
20260507112057 60 0 0.0 3.0 0.00 0.00 0.00 38 1014.8
20260507111553 60 0 1.0 3.0 0.00 0.00 0.00 39 1014.6
20260507111053 60 249 1.0 3.0 0.00 0.00 0.00 38 1014.7
20260507110553 60 249 1.0 3.0 0.00 0.00 0.00 38 1014.7
20260507110051 60 249 1.0 3.0 0.00 0.00 0.00 37 1014.8
20260507105552 60 0 1.0 4.0 0.00 0.00 0.00 38 1014.6
20260507105049 60 360 1.0 4.0 0.00 0.00 0.00 38 1014.8
20260507104602 59 250 1.0 4.0 0.00 0.00 0.00 40 1014.7
20260507104053 58 250 0.0 0.0 0.00 0.00 0.00 42 1014.8
20260507103553 58 0 0.0 0.0 0.00 0.00 0.00 42 1014.9
20260507103053 58 0 0.0 0.0 0.00 0.00 0.00 42 1014.8
20260507102552 59 0 0.0 0.0 0.00 0.00 0.00 42 1015.0
20260507102052 59 0 0.0 0.0 0.00 0.00 0.00 40 1015.0
20260507101556 59 0 0.0 0.0 0.00 0.00 0.00 40 1015.0
20260507101053 59 0 0.0 0.0 0.00 0.00 0.00 40 1015.0
20260507100552 60 0 0.0 0.0 0.00 0.00 0.00 39 1015.1
20260507100057 60 0 0.0 2.0 0.00 0.00 0.00 37 1015.0
20260507095552 61 0 0.0 3.0 0.00 0.00 0.00 36 1015.0
20260507095052 61 0 1.0 3.0 0.00 0.00 0.00 35 1015.1
20260507094555 62 360 1.0 3.0 0.00 0.00 0.00 35 1015.1
20260507094053 62 360 1.0 4.0 0.00 0.00 0.00 34 1015.1
20260507093552 62 360 0.0 4.0 0.00 0.00 0.00 33 1015.2
20260507093053 62 0 0.0 2.0 0.00 0.00 0.00 34 1015.2
20260507092549 62 0 0.0 3.0 0.00 0.00 0.00 34 1015.3
20260507092051 63 0 1.0 3.0 0.00 0.00 0.00 34 1015.3
20260507091552 63 250 1.0 3.0 0.00 0.00 0.00 33 1015.4
20260507091051 63 250 1.0 3.0 0.00 0.00 0.00 32 1015.3
20260507090554 63 250 1.0 3.0 0.00 0.00 0.00 31 1015.3
20260507090055 64 250 1.0 2.0 0.00 0.00 0.00 30 1015.4
20260507085552 65 0 0.0 3.0 0.00 0.00 0.00 29 1015.4
20260507085052 66 0 0.0 5.0 0.00 0.00 0.00 28 1015.4
20260507084559 66 0 1.0 5.0 0.00 0.00 0.00 27 1015.4
20260507084053 66 250 2.0 5.0 0.00 0.00 0.00 27 1015.4
20260507083555 66 250 2.0 5.0 0.00 0.00 0.00 27 1015.3
20260507083053 66 250 1.0 5.0 0.00 0.00 0.00 27 1015.4
20260507082554 66 250 2.0 4.0 0.00 0.00 0.00 26 1015.4
20260507082052 67 250 1.0 4.0 0.00 0.00 0.00 26 1015.4
20260507081551 67 250 2.0 7.0 0.00 0.00 0.00 26 1015.5
20260507081053 67 250 3.0 7.0 0.00 0.00 0.00 26 1015.5
20260507080552 67 254 2.0 6.0 0.00 0.00 0.00 26 1015.5
20260507080056 67 260 2.0 6.0 0.00 0.00 0.00 26 1015.5
20260507075554 67 259 1.0 6.0 0.00 0.00 0.00 26 1015.5
20260507075052 67 259 2.0 7.0 0.00 0.00 0.00 25 1015.5
20260507074555 67 257 2.0 7.0 0.00 0.00 0.00 25 1015.4
20260507074049 67 253 3.0 7.0 0.00 0.00 0.00 25 1015.5
20260507073552 67 249 3.0 7.0 0.00 0.00 0.00 25 1015.5
20260507073058 67 250 4.0 8.0 0.00 0.00 0.00 25 1015.4
20260507072552 67 247 3.0 8.0 0.00 0.00 0.00 25 1015.4
20260507072054 67 248 3.0 5.0 0.00 0.00 0.00 25 1015.4
20260507071551 67 248 2.0 5.0 0.00 0.00 0.00 25 1015.5
20260507071052 67 248 3.0 5.0 0.00 0.00 0.00 25 1015.4
20260507070552 67 248 2.0 5.0 0.00 0.00 0.00 25 1015.4
20260507070108 67 248 2.0 4.0 0.00 0.00 0.00 25 1015.5
20260507065551 67 248 2.0 4.0 0.00 0.00 0.00 25 1015.4
20260507065049 68 248 2.0 5.0 0.00 0.00 0.00 24 1015.4
20260507064554 68 248 2.0 5.0 0.00 0.00 0.00 24 1015.4
20260507064049 67 248 2.0 5.0 0.00 0.00 0.00 24 1015.5
20260507063553 67 250 2.0 7.0 0.00 0.00 0.00 24 1015.4
20260507063056 67 250 2.0 7.0 0.00 0.00 0.00 24 1015.4
20260507062552 68 250 3.0 8.0 0.00 0.00 0.00 24 1015.5
20260507062052 68 257 3.0 8.0 0.00 0.00 0.00 24 1015.5
20260507061555 67 254 2.0 7.0 0.00 0.00 0.00 24 1015.5
20260507061053 67 253 2.0 7.0 0.00 0.00 0.00 24 1015.5
20260507060552 67 254 2.0 5.0 0.00 0.00 0.00 24 1015.5
20260507060055 67 254 3.0 5.0 0.00 0.00 0.00 24 1015.6
20260507055552 67 254 2.0 5.0 0.00 0.00 0.00 24 1015.6
20260507055051 67 254 2.0 5.0 0.00 0.00 0.00 24 1015.5
20260507054551 67 254 2.0 5.0 0.00 0.00 0.00 24 1015.6
20260507054055 67 254 2.0 5.0 0.00 0.00 0.00 24 1015.6
20260507053552 67 254 2.0 4.0 0.00 0.00 0.00 24 1015.6
20260507053058 68 254 1.0 4.0 0.00 0.00 0.00 24 1015.6
20260507052552 68 254 1.0 5.0 0.00 0.00 0.00 23 1015.5
20260507052053 68 254 2.0 7.0 0.00 0.00 0.00 23 1015.6
20260507051559 68 254 2.0 7.0 0.00 0.00 0.00 23 1015.6
20260507051048 68 254 3.0 7.0 0.00 0.00 0.00 23 1015.5
20260507050553 68 254 2.0 5.0 0.00 0.00 0.00 23 1015.5
20260507050107 68 254 2.0 4.0 0.00 0.00 0.00 23 1015.5
20260507045552 68 253 2.0 4.0 0.00 0.00 0.00 23 1015.4
20260507045052 68 253 2.0 4.0 0.00 0.00 0.00 23 1015.4
20260507044558 68 253 1.0 5.0 0.00 0.00 0.00 23 1015.3
20260507044056 69 253 2.0 5.0 0.00 0.00 0.00 23 1015.3
20260507043552 69 253 2.0 7.0 0.00 0.00 0.00 23 1015.3
20260507043054 69 253 2.0 7.0 0.00 0.00 0.00 23 1015.2
20260507042552 69 253 2.0 7.0 0.00 0.00 0.00 23 1015.2
20260507042052 69 251 3.0 8.0 0.00 0.00 0.00 23 1015.1
20260507041555 69 249 3.0 8.0 0.00 0.00 0.00 23 1015.1
20260507041052 69 261 2.0 8.0 0.00 0.00 0.00 23 1015.1
20260507040551 70 261 2.0 8.0 0.00 0.00 0.00 23 1015.0
20260507040101 70 260 3.0 8.0 0.00 0.00 0.00 23 1015.0
20260507035556 70 249 4.0 7.0 0.00 0.00 0.00 22 1015.0
20260507035052 70 257 3.0 7.0 0.00 0.00 0.00 22 1014.9
20260507034602 70 265 3.0 8.0 0.00 0.00 0.00 22 1014.8
20260507034052 70 256 3.0 8.0 0.00 0.00 0.00 22 1014.9
20260507033552 71 257 4.0 8.0 0.00 0.00 0.00 22 1014.7
20260507033055 71 269 4.0 8.0 0.00 0.00 0.00 21 1014.7
20260507032553 71 261 4.0 8.0 0.00 0.00 0.00 22 1014.7
20260507032052 71 271 4.0 9.0 0.00 0.00 0.00 21 1014.6
20260507031557 71 262 3.0 9.0 0.00 0.00 0.00 22 1014.6
20260507031052 71 258 2.0 7.0 0.00 0.00 0.00 22 1014.5
20260507030552 71 271 3.0 8.0 0.00 0.00 0.00 22 1014.5
20260507030054 72 257 3.0 8.0 0.00 0.00 0.00 22 1014.4
20260507025558 72 284 3.0 8.0 0.00 0.00 0.00 21 1014.4
20260507025052 72 260 3.0 8.0 0.00 0.00 0.00 21 1014.3
20260507024556 72 269 3.0 7.0 0.00 0.00 0.00 21 1014.2
20260507024100 72 253 2.0 7.0 0.00 0.00 0.00 21 1014.1
20260507023555 72 262 2.0 7.0 0.00 0.00 0.00 21 1014.1
20260507023051 73 0 2.0 8.0 0.00 0.00 0.00 21 1014.2
20260507022553 73 259 2.0 8.0 0.00 0.00 0.00 20 1014.1
20260507022053 73 309 2.0 7.0 0.00 0.00 0.00 20 1014.0
20260507021623 73 288 2.0 6.0 0.00 0.00 0.00 20 1014.0
20260507021052 73 296 2.0 7.0 0.00 0.00 0.00 20 1013.9
20260507020553 74 287 2.0 7.0 0.00 0.00 0.00 20 1014.0
20260507020052 74 298 2.0 8.0 0.00 0.00 0.00 20 1014.0
20260507015552 75 306 2.0 8.0 0.00 0.00 0.00 20 1014.0
20260507015052 75 290 3.0 7.0 0.00 0.00 0.00 19 1014.0
20260507014550 76 316 2.0 5.0 0.00 0.00 0.00 19 1013.9
20260507014052 76 315 1.0 7.0 0.00 0.00 0.00 19 1013.9
20260507013552 76 304 2.0 10.0 0.00 0.00 0.00 19 1014.0
20260507013053 76 278 4.0 10.0 0.00 0.00 0.00 18 1013.9
20260507012554 77 292 2.0 9.0 0.00 0.00 0.00 19 1014.0
20260507012052 77 300 2.0 9.0 0.00 0.00 0.00 19 1013.9
20260507011556 77 323 4.0 9.0 0.00 0.00 0.00 19 1013.9
20260507011052 77 292 2.0 8.0 0.00 0.00 0.00 19 1013.9
20260507010554 77 275 1.0 10.0 0.00 0.00 0.00 19 1013.9
20260507010054 77 331 2.0 10.0 0.00 0.00 0.00 19 1013.9
20260507005553 77 340 3.0 9.0 0.00 0.00 0.00 18 1013.9
20260507005053 78 336 3.0 8.0 0.00 0.00 0.00 18 1013.9
20260507004550 78 315 2.0 10.0 0.00 0.00 0.00 19 1013.9
20260507004052 78 338 3.0 10.0 0.00 0.00 0.00 18 1013.9
20260507003553 78 350 4.0 8.0 0.00 0.00 0.00 18 1013.9
20260507003055 78 360 3.0 8.0 0.00 0.00 0.00 18 1013.9
20260507002552 78 278 2.0 9.0 0.00 0.00 0.00 17 1013.9
20260507002052 78 264 2.0 10.0 0.00 0.00 0.00 18 1013.8
20260507001600 78 329 5.0 10.0 0.00 0.00 0.00 18 1013.8
20260507001048 78 296 3.0 9.0 0.00 0.00 0.00 18 1013.8
20260507000555 78 244 3.0 11.0 0.00 0.00 0.00 16 1013.8
20260507000057 79 258 5.0 11.0 0.00 0.00 0.00 17 1013.7
20260506235553 79 278 3.0 8.0 0.00 0.00 0.00 18 1013.8
20260506235052 78 321 1.0 6.0 0.00 0.00 0.00 18 1013.8
20260506234616 78 42 2.0 9.0 0.00 0.00 0.00 17 1013.8
20260506234053 79 5 3.0 9.0 0.00 0.00 0.00 17 1013.8
20260506233549 79 17 2.0 9.0 0.00 0.00 0.00 17 1013.8
20260506233052 79 242 4.0 11.0 0.00 0.00 0.00 17 1013.8
20260506232556 79 284 2.0 11.0 0.00 0.00 0.00 17 1013.7
20260506232052 78 307 4.0 11.0 0.00 0.00 0.00 17 1013.8
20260506231555 78 327 3.0 12.0 0.00 0.00 0.00 18 1013.9
20260506231056 78 281 5.0 12.0 0.00 0.00 0.00 19 1013.9
20260506230555 78 351 4.0 10.0 0.00 0.00 0.00 19 1014.0
20260506230057 78 292 3.0 10.0 0.00 0.00 0.00 19 1014.0
20260506225555 78 343 3.0 11.0 0.00 0.00 0.00 19 1014.0
20260506225049 78 253 4.0 11.0 0.00 0.00 0.00 19 1014.0
20260506224550 78 240 6.0 11.0 0.00 0.00 0.00 19 1014.0
20260506224052 78 323 3.0 11.0 0.00 0.00 0.00 20 1014.1
20260506223555 78 309 2.0 11.0 0.00 0.00 0.00 19 1014.0
20260506223058 78 280 6.0 17.0 0.00 0.00 0.00 18 1014.2
20260506222553 79 284 3.0 17.0 0.00 0.00 0.00 19 1014.2
20260506222053 78 318 7.0 17.0 0.00 0.00 0.00 20 1014.2
20260506221555 79 229 1.0 10.0 0.00 0.00 0.00 18 1014.2
20260506221053 78 0 4.0 10.0 0.00 0.00 0.00 19 1014.4
20260506220552 78 293 4.0 10.0 0.00 0.00 0.00 19 1014.4
20260506220054 78 236 2.0 10.0 0.00 0.00 0.00 20 1014.4
20260506215553 77 286 2.0 7.0 0.00 0.00 0.00 19 1014.5
20260506215052 77 78 1.0 7.0 0.00 0.00 0.00 20 1014.5
20260506214552 77 296 2.0 8.0 0.00 0.00 0.00 18 1014.7
20260506214052 77 333 4.0 9.0 0.00 0.00 0.00 21 1014.8
20260506213555 76 293 2.0 9.0 0.00 0.00 0.00 22 1014.8
20260506213053 76 51 4.0 8.0 0.00 0.00 0.00 21 1014.9
20260506212554 76 69 2.0 6.0 0.00 0.00 0.00 23 1015.0
20260506212054 76 125 1.0 9.0 0.00 0.00 0.00 22 1014.9
20260506211552 76 0 4.0 10.0 0.00 0.00 0.00 21 1015.0
20260506211053 76 24 2.0 10.0 0.00 0.00 0.00 22 1015.0
20260506210553 76 0 5.0 10.0 0.00 0.00 0.00 21 1015.0
20260506210054 76 264 4.0 11.0 0.00 0.00 0.00 23 1015.1
20260506205552 76 340 2.0 11.0 0.00 0.00 0.00 23 1015.1
20260506205052 76 330 4.0 11.0 0.00 0.00 0.00 22 1015.2
20260506204558 76 352 4.0 11.0 0.00 0.00 0.00 23 1015.2
20260506204053 76 311 3.0 9.0 0.00 0.00 0.00 23 1015.1
20260506203552 75 352 3.0 9.0 0.00 0.00 0.00 24 1015.2
20260506203051 75 0 1.0 9.0 0.00 0.00 0.00 23 1015.2
20260506202554 74 271 4.0 9.0 0.00 0.00 0.00 23 1015.3
20260506202055 74 0 2.0 6.0 0.00 0.00 0.00 23 1015.3
20260506201556 74 59 0.0 7.0 0.00 0.00 0.00 25 1015.5
20260506201051 74 53 3.0 9.0 0.00 0.00 0.00 24 1015.5
20260506200556 74 343 1.0 9.0 0.00 0.00 0.00 24 1015.7
20260506200109 74 0 3.0 10.0 0.00 0.00 0.00 25 1015.7
20260506195556 74 342 4.0 10.0 0.00 0.01 0.00 25 1015.7
20260506195053 74 254 2.0 9.0 0.00 0.01 0.00 27 1015.8
20260506194623 73 315 3.0 9.0 0.00 0.01 0.00 27 1015.9
20260506194053 74 306 3.0 10.0 0.00 0.01 0.00 26 1015.9
20260506193552 74 302 3.0 10.0 0.00 0.01 0.00 27 1015.9
20260506193057 74 84 0.0 7.0 0.00 0.01 0.00 28 1015.9
20260506192552 73 84 1.0 7.0 0.00 0.01 0.00 27 1016.1
20260506192056 73 146 2.0 5.0 0.00 0.01 0.00 29 1016.2
20260506191600 72 0 1.0 7.0 0.00 0.01 0.00 29 1016.3
20260506191055 72 224 3.0 8.0 0.00 0.01 0.00 29 1016.3
20260506190552 72 279 3.0 8.0 0.00 0.01 0.00 30 1016.3
20260506185552 71 305 2.0 12.0 0.00 0.01 0.00 31 1016.4
20260506185056 71 221 1.0 12.0 0.00 0.01 0.00 30 1016.3
20260506184610 71 267 3.0 12.0 0.00 0.01 0.00 31 1016.4
20260506184052 71 265 2.0 11.0 0.00 0.01 0.00 31 1016.5
20260506183556 71 109 4.0 11.0 0.00 0.01 0.00 30 1016.5
20260506183104 71 279 2.0 10.0 0.00 0.01 0.00 30 1016.6
20260506182552 71 24 3.0 10.0 0.00 0.01 0.00 31 1016.6
20260506182052 71 316 4.0 8.0 0.00 0.01 0.00 31 1016.7
20260506181601 70 33 0.0 5.0 0.00 0.01 0.00 33 1016.8
20260506181052 70 36 1.0 8.0 0.00 0.01 0.00 32 1016.9
20260506180555 70 325 1.0 9.0 0.00 0.01 0.00 32 1016.9
20260506180056 69 0 1.0 9.0 0.00 0.01 0.00 34 1017.0
20260506175552 69 9 3.0 8.0 0.00 0.01 0.00 32 1017.0
20260506175052 69 286 1.0 9.0 0.00 0.01 0.00 34 1017.1
20260506174604 68 0 1.0 9.0 0.00 0.01 0.00 34 1017.0
20260506174052 68 85 4.0 9.0 0.00 0.01 0.00 33 1017.1
20260506173556 69 88 2.0 8.0 0.00 0.01 0.00 34 1017.1
20260506173112 68 240 2.0 8.0 0.00 0.01 0.00 34 1017.0
20260506172551 68 324 2.0 9.0 0.00 0.01 0.00 35 1017.1
20260506172052 68 271 2.0 9.0 0.00 0.01 0.00 35 1016.9
20260506171554 68 267 1.0 9.0 0.00 0.01 0.00 36 1017.0
20260506171052 68 5 2.0 8.0 0.00 0.01 0.00 36 1017.0
20260506170551 67 42 1.0 10.0 0.00 0.01 0.00 37 1017.0
20260506170057 67 43 4.0 10.0 0.00 0.01 0.00 37 1017.0
20260506165552 67 36 3.0 9.0 0.00 0.01 0.00 38 1017.0
20260506165052 67 44 3.0 8.0 0.00 0.01 0.00 36 1016.9
20260506164557 67 48 1.0 5.0 0.00 0.01 0.00 38 1016.9
20260506164052 67 0 2.0 5.0 0.00 0.01 0.00 39 1016.9
20260506163552 66 352 1.0 7.0 0.00 0.01 0.00 38 1016.9
20260506163055 66 292 2.0 7.0 0.00 0.01 0.00 41 1016.8
20260506162552 66 287 2.0 5.0 0.00 0.01 0.00 42 1016.8
20260506162054 65 0 2.0 5.0 0.00 0.01 0.00 42 1016.7
20260506161604 65 26 1.0 9.0 0.00 0.01 0.00 42 1016.7
20260506161053 65 0 3.0 9.0 0.00 0.01 0.00 43 1016.7
20260506160552 65 113 2.0 7.0 0.00 0.01 0.00 45 1016.7
20260506160057 65 0 2.0 7.0 0.00 0.01 0.00 44 1016.7
20260506155552 65 61 2.0 6.0 0.00 0.01 0.00 46 1016.7
20260506155055 64 69 0.0 3.0 0.00 0.01 0.00 48 1016.7
20260506154557 64 0 0.0 5.0 0.00 0.01 0.00 50 1016.6
20260506154049 63 327 1.0 5.0 0.00 0.01 0.00 48 1016.6
20260506153553 63 48 3.0 5.0 0.00 0.01 0.00 47 1016.7
20260506153058 63 42 0.0 5.0 0.00 0.01 0.00 49 1016.7
20260506152552 63 42 1.0 5.0 0.00 0.01 0.00 49 1016.7
20260506152052 63 43 1.0 4.0 0.00 0.01 0.00 51 1016.7
20260506151607 63 44 2.0 5.0 0.00 0.01 0.00 52 1016.7
20260506151049 62 0 1.0 5.0 0.00 0.01 0.00 52 1016.6
20260506150549 62 47 3.0 5.0 0.00 0.01 0.00 52 1016.6
20260506150054 62 242 1.0 3.0 0.00 0.01 0.00 53 1016.6
20260506145552 62 0 1.0 3.0 0.00 0.01 0.00 52 1016.5
20260506145052 62 244 0.0 4.0 0.00 0.01 0.00 54 1016.4
20260506144602 62 0 1.0 4.0 0.00 0.01 0.00 53 1016.4
20260506144049 62 244 0.0 4.0 0.00 0.01 0.00 55 1016.4
20260506143550 61 0 0.0 1.0 0.00 0.01 0.00 56 1016.4
20260506143103 61 0 0.0 3.0 0.00 0.01 0.00 57 1016.5
20260506142553 61 0 0.0 3.0 0.00 0.01 0.00 57 1016.6
20260506142049 61 244 1.0 3.0 0.00 0.01 0.00 56 1016.5
20260506141553 61 0 0.0 3.0 0.00 0.01 0.00 57 1016.5
20260506141050 61 0 0.0 3.0 0.00 0.01 0.00 56 1016.5
20260506140555 60 0 0.0 3.0 0.00 0.01 0.00 58 1016.4
20260506135549 60 0 0.0 0.0 0.00 0.01 0.00 58 1016.3
20260506135049 60 0 0.0 0.0 0.00 0.01 0.00 58 1016.3
20260506134553 60 0 0.0 0.0 0.00 0.01 0.00 59 1016.3
20260506134049 59 0 0.0 0.0 0.00 0.01 0.00 62 1016.2
20260506133549 58 0 0.0 0.0 0.00 0.01 0.00 68 1016.2
20260506133053 56 0 0.0 0.0 0.00 0.01 0.00 71 1016.3
20260506132549 55 0 0.0 0.0 0.00 0.01 0.00 75 1016.2
20260506132052 54 0 0.0 0.0 0.00 0.01 0.00 76 1016.2
20260506131555 53 0 0.0 0.0 0.00 0.01 0.00 77 1016.0
20260506131052 53 0 0.0 0.0 0.00 0.01 0.00 79 1016.0
20260506130553 52 0 0.0 0.0 0.00 0.01 0.00 79 1016.0
20260506130111 52 0 0.0 0.0 0.00 0.01 0.00 79 1015.9
20260506125555 51 0 0.0 0.0 0.00 0.01 0.00 79 1015.9
20260506125052 51 0 0.0 0.0 0.00 0.01 0.00 79 1015.9
20260506124553 51 0 0.0 0.0 0.00 0.01 0.00 79 1015.8
20260506124052 51 0 0.0 0.0 0.00 0.01 0.00 79 1015.9
20260506123549 51 0 0.0 0.0 0.00 0.01 0.00 79 1015.8
20260506123052 51 0 0.0 0.0 0.00 0.01 0.00 78 1015.8
20260506122550 51 0 0.0 0.0 0.00 0.01 0.00 78 1015.8
20260506122049 51 0 0.0 0.0 0.00 0.01 0.00 78 1015.8
20260506121553 51 0 0.0 0.0 0.00 0.01 0.00 78 1015.7
20260506121052 51 0 0.0 0.0 0.00 0.01 0.00 77 1015.7
20260506120549 51 0 0.0 0.0 0.00 0.01 0.00 77 1015.7
20260506120053 52 0 0.0 0.0 0.00 0.01 0.00 76 1015.7